Wind_Speed
32 32 32 32 31 30 29 29 29 29 28 27 25 24 23 25 26 24 22 21 21 20 22 22 22 18 16 18 24 26 27 26 27 27 27 31 35 37 33 31 32 32 30
35 34 35 34 34 33 33 32 32 32 31 31 31 29 29 28 28 27 26 25 26 24 21 22 22 21 21 21 26 25 27 29 30 29 30 31 32 34 34 33 33 33 33
38 38 37 36 36 36 35 35 36 35 34 34 34 34 32 31 32 33 33 31 29 29 28 27 26 26 26 25 25 23 23 30 32 31 31 35 35 36 34 34 34 35 35
41 41 41 40 39 38 38 38 37 37 37 37 37 37 37 37 37 36 36 35 33 33 34 33 32 29 30 27 25 24 26 29 23 29 29 24 33 36 40 41 40 37 34
44 43 42 42 42 42 42 41 41 40 38 38 38 38 38 39 39 39 40 39 37 37 38 37 37 37 36 36 35 35 33 29 29 21 19 22 25 29 36 42 44 42 40
47 47 45 45 45 44 44 43 43 42 41 40 39 39 39 39 39 40 40 40 41 41 41 40 39 39 41 40 40 37 36 36 35 29 26 25 30 27 24 22 31 23 31
49 48 48 48 48 48 47 47 46 45 45 44 43 43 42 41 40 40 40 41 42 43 43 42 43 42 42 40 38 38 36 37 38 40 39 33 31 30 28 27 28 21 25
51 51 51 50 50 50 50 49 49 49 48 48 47 47 46 44 43 43 43 43 43 43 44 45 46 45 44 43 42 41 40 40 40 40 42 42 42 40 34 36 37 29 30
52 52 53 53 53 52 52 52 51 51 51 51 50 49 48 47 47 47 46 45 45 45 45 46 46 46 46 46 46 46 45 44 44 43 43 44 43 43 44 42 43 43 42
54 54 54 54 54 54 54 53 53 53 53 52 52 51 50 50 49 49 48 48 48 48 47 47 48 49 49 49 49 50 49 49 48 48 48 47 49 49 45 44 45 44 42
57 56 55 54 54 54 54 54 54 55 55 54 54 54 53 52 51 51 50 49 49 49 49 49 49 51 51 51 51 52 52 52 51 51 51 51 51 52 51 50 48 49 49
57 57 57 57 57 56 55 55 56 56 56 56 56 56 56 56 56 55 54 55 55 55 54 55 54 54 53 54 54 54 55 54 54 54 54 53 54 54 55 56 56 54 53
58 58 57 57 57 58 58 58 58 58 58 57 57 58 59 60 61 59 59 59 60 60 58 58 58 58 59 58 57 57 57 57 56 56 56 56 56 57 58 58 58 58 58
54 55 56 57 57 58 59 60 61 62 62 62 63 63 63 63 64 64 63 62 62 61 62 61 62 62 62 63 62 61 61 61 61 61 62 63 63 62 60 60 61 61 60
56 58 59 59 59 60 59 60 60 60 61 62 62 63 64 65 66 66 66 67 66 66 65 65 66 66 65 65 66 66 67 67 66 65 65 65 65 65 65 65 66 65 64
59 60 60 61 62 64 65 66 67 68 68 69 69 69 69 69 69 69 70 70 70 70 70 70 69 69 69 69 70 71 71 71 71 71 71 70 70 68 67 68 70 70 69
64 65 66 67 68 70 71 70 70 70 71 71 71 71 72 72 72 72 73 73 73 73 74 74 74 74 74 73 73 74 74 74 73 74 75 75 75 74 72 69 70 71 73
66 68 69 70 70 72 73 73 72 73 74 74 74 74 75 75 74 74 73 72 72 72 73 73 73 73 74 73 72 73 74 74 75 76 78 78 76 76 76 77 76 76 74
65 66 67 67 67 67 67 68 70 71 71 71 71 71 72 73 73 74 73 73 72 71 71 71 71 71 72 72 72 71 72 74 76 77 78 78 76 76 77 78 79 78 79
59 62 64 63 63 63 61 60 61 61 64 66 67 70 70 71 69 68 67 66 67 67 66 67 67 68 68 69 69 68 68 68 68 68 71 75 79 80 79 79 79 81 82
58 59 59 59 61 61 60 62 62 59 58 59 62 64 65 65 64 65 66 67 66 66 65 65 65 65 68 67 67 68 70 71 72 72 72 73 77 77 78 79 81 82 82
54 55 55 53 54 54 57 57 57 59 62 63 65 63 60 61 62 61 62 63 64 65 66 67 69 67 67 66 67 69 69 70 70 74 72 73 74 73 72 71 72 75 78
45 48 49 49 49 52 52 51 55 56 58 58 58 58 59 61 61 61 62 62 63 63 64 67 67 67 67 68 69 71 71 72 72 71 72 71 74 73 74 73 72 72 72
43 43 43 45 48 50 51 52 52 53 54 56 56 57 58 61 62 63 63 64 65 65 67 68 68 69 70 72 71 71 73 74 75 76 76 75 75 74 74 75 75 76 77
40 41 41 40 41 42 43 45 47 48 52 56 60 61 61 62 65 65 65 67 69 69 71 73 74 73 75 77 78 79 78 79 79 80 80 79 78 78 79 80 82 83 83
32 33 34 35 37 38 40 42 44 45 46 46 48 50 52 55 60 62 62 61 62 63 66 68 70 72 73 74 76 79 80 79 80 81 84 85 85 84 82 83 83 85 87
Wind_Direction
241 241 241 243 241 241 239 240 240 240 244 242 236 234 234 229 232 225 233 235 236 238 240 243 249 251 250 249 243 247 248 250 253 252 250 252 247 243 240 246 247 247 247
246 243 243 243 245 244 242 241 240 241 240 242 244 241 235 235 233 229 235 241 242 241 241 247 246 247 249 251 253 254 249 252 250 250 251 253 255 245 243 246 249 249 247
245 246 245 244 243 245 247 246 245 242 241 239 239 242 244 243 239 237 241 246 245 248 248 248 248 245 248 250 254 240 250 248 249 248 249 248 245 244 244 246 248 248 249
246 245 245 245 244 243 245 247 247 248 246 244 242 240 240 241 243 245 248 251 249 246 246 246 249 250 249 250 253 251 248 228 230 232 233 238 242 242 246 244 246 247 249
246 246 246 247 246 245 245 245 246 247 247 248 247 246 244 243 243 243 244 246 249 250 250 248 247 250 250 252 257 259 258 258 267 261 249 242 239 242 242 243 244 246 247
244 245 245 245 246 245 246 246 245 247 248 248 248 247 247 246 245 244 244 245 245 246 248 249 249 250 252 253 254 255 256 255 255 262 268 260 269 262 249 261 240 234 242
246 246 246 246 246 245 245 245 246 246 246 246 247 248 247 247 247 247 247 246 246 246 247 249 250 249 248 249 251 253 252 253 252 253 249 254 264 261 266 259 252 254 255
246 246 247 246 246 247 247 247 246 247 247 246 245 246 247 247 247 247 247 247 247 247 248 248 248 248 247 247 246 248 250 251 252 251 255 250 248 253 260 262 263 266 261
245 245 245 245 245 246 247 247 248 247 248 249 249 249 249 249 248 247 247 247 248 249 249 249 249 248 248 248 247 247 247 249 251 252 253 257 255 251 249 250 255 256 262
245 245 246 247 247 247 247 247 247 248 248 249 250 251 250 250 249 248 248 248 248 249 250 250 250 250 249 249 249 250 251 251 252 252 253 252 255 258 255 251 253 255 250
245 245 245 246 248 248 248 248 248 248 248 249 250 250 250 250 250 251 250 250 250 250 250 251 251 252 252 253 252 252 253 253 252 252 253 254 254 254 257 258 254 253 253
247 248 248 247 246 246 247 247 249 250 251 251 251 252 251 250 250 252 252 252 253 255 256 256 255 252 252 253 254 254 254 255 255 255 255 254 255 255 254 253 255 255 254
246 247 247 247 248 250 250 250 249 249 250 250 250 251 251 250 252 256 257 256 256 256 256 256 255 254 253 253 253 254 254 255 256 257 259 259 258 258 258 257 256 255 256
248 248 249 249 249 249 249 250 251 251 251 251 250 249 249 250 253 257 257 256 256 255 256 256 256 255 254 254 255 254 254 255 256 256 256 257 258 259 260 260 259 258 257
249 249 249 250 250 250 251 251 251 252 253 254 254 254 254 254 254 254 255 255 256 256 256 256 257 256 256 256 255 255 255 256 257 258 259 260 259 258 258 259 260 260 258
251 251 252 253 253 254 254 253 253 253 253 254 254 255 255 256 256 257 257 257 257 258 258 258 258 258 258 258 258 257 256 256 256 256 257 258 260 261 260 260 258 258 259
252 254 254 253 253 254 255 257 258 257 257 257 257 257 257 257 257 258 258 258 258 259 259 259 259 259 259 259 258 258 258 257 257 257 258 258 259 260 260 259 261 260 258
254 255 255 257 257 258 258 259 260 260 260 260 260 259 260 260 260 260 261 261 261 261 261 261 261 260 260 259 259 259 259 260 259 258 258 258 258 259 259 259 260 260 258
257 257 257 258 260 261 261 261 261 261 261 262 262 262 261 261 261 262 262 263 263 263 262 262 261 260 259 258 257 257 258 258 259 259 260 259 258 258 259 259 258 258 259
256 257 258 259 259 260 259 258 257 258 259 260 260 260 260 261 261 263 262 260 261 260 257 258 258 257 255 255 255 255 255 257 258 260 262 261 260 259 259 259 259 257 257
260 260 259 258 259 259 259 257 257 257 256 255 256 256 257 256 257 258 257 258 256 256 258 258 258 258 259 259 258 257 258 259 259 261 261 263 263 261 260 258 257 256 256
260 260 260 260 261 260 258 256 255 255 257 258 258 261 259 259 258 258 260 259 257 257 257 258 259 258 259 259 259 258 257 258 259 259 259 261 260 261 259 258 257 257 257
258 260 262 262 262 262 263 262 262 263 262 262 262 263 263 264 264 263 264 263 262 262 261 258 257 258 258 261 260 258 260 259 258 261 260 259 260 260 259 259 260 259 257
258 258 259 260 259 258 259 259 261 260 261 260 261 261 261 262 262 262 262 261 260 262 261 259 260 262 261 261 259 261 262 261 261 262 262 261 262 261 261 261 262 262 262
257 259 259 260 262 263 263 262 262 262 261 262 262 261 261 261 261 259 260 260 261 261 261 260 260 260 261 261 262 262 261 262 263 263 264 262 262 262 263 263 264 264 262
259 262 264 266 268 269 269 267 267 266 265 265 265 266 267 266 266 266 266 265 264 265 264 263 262 262 261 261 262 262 261 261 261 261 262 262 263 264 263 263 263 264 264
Height
5785 5787 5789 5792 5794 5797 5799 5802 5805 5808 5809 5810 5812 5814 5816 5817 5821 5822 5823 5825 5827 5828 5831 5832 5834 5835 5837 5839 5839 5842 5844 5846 5848 5849 5851 5854 5854 5856 5859 5861 5863 5866 5868
5777 5780 5783 5785 5788 5790 5793 5795 5798 5801 5803 5805 5806 5809 5811 5813 5814 5817 5820 5823 5823 5826 5827 5828 5831 5832 5833 5834 5835 5837 5839 5842 5843 5845 5846 5848 5849 5851 5853 5855 5858 5860 5862
5768 5771 5774 5777 5780 5783 5785 5788 5790 5793 5796 5799 5801 5803 5804 5807 5809 5812 5814 5816 5817 5819 5822 5825 5826 5828 5828 5830 5831 5834 5833 5836 5838 5838 5839 5841 5843 5847 5848 5850 5852 5854 5856
5759 5762 5765 5768 5772 5775 5778 5780 5782 5785 5788 5790 5793 5796 5798 5800 5803 5805 5807 5808 5810 5813 5817 5818 5820 5822 5825 5825 5826 5828 5830 5832 5833 5834 5835 5835 5837 5839 5841 5844 5846 5847 5850
5749 5752 5755 5759 5762 5765 5768 5771 5774 5776 5779 5782 5785 5787 5790 5793 5795 5797 5800 5801 5803 5805 5809 5811 5813 5815 5819 5820 5820 5822 5825 5827 5828 5828 5829 5831 5833 5834 5836 5837 5838 5840 5842
5739 5741 5745 5748 5751 5755 5758 5761 5765 5768 5770 5773 5776 5778 5781 5783 5786 5788 5790 5792 5795 5798 5801 5803 5804 5808 5811 5812 5813 5815 5819 5821 5823 5824 5825 5828 5830 5831 5832 5833 5832 5833 5836
5728 5731 5735 5738 5741 5744 5747 5750 5753 5757 5760 5763 5765 5768 5770 5773 5776 5778 5781 5784 5787 5789 5791 5793 5796 5799 5801 5803 5804 5808 5811 5812 5815 5818 5819 5821 5823 5825 5826 5827 5828 5829 5830
5718 5721 5724 5727 5730 5733 5737 5740 5743 5746 5749 5752 5755 5758 5761 5765 5767 5769 5772 5774 5777 5779 5782 5784 5787 5789 5791 5793 5796 5799 5803 5805 5806 5809 5811 5813 5815 5818 5820 5821 5822 5824 5827
5705 5709 5712 5715 5719 5722 5725 5729 5732 5735 5738 5741 5745 5748 5751 5754 5756 5759 5761 5763 5766 5769 5771 5774 5776 5778 5781 5783 5786 5790 5792 5794 5797 5799 5801 5803 5805 5809 5811 5814 5816 5818 5819
5693 5697 5701 5704 5707 5711 5714 5717 5720 5724 5727 5729 5733 5735 5738 5742 5744 5747 5750 5752 5755 5758 5761 5763 5766 5768 5770 5773 5776 5779 5781 5784 5787 5788 5790 5793 5795 5797 5801 5804 5806 5808 5811
5681 5685 5688 5692 5695 5698 5702 5705 5708 5711 5714 5717 5719 5722 5725 5728 5732 5735 5737 5740 5743 5746 5749 5752 5754 5757 5760 5762 5764 5767 5770 5773 5775 5777 5779 5781 5784 5787 5789 5792 5796 5798 5800
5667 5671 5675 5678 5682 5685 5688 5692 5695 5698 5701 5704 5707 5709 5712 5715 5718 5721 5724 5726 5729 5733 5736 5740 5742 5745 5747 5750 5752 5754 5757 5759 5762 5764 5767 5769 5772 5775 5777 5779 5782 5786 5789
5654 5658 5662 5666 5669 5672 5674 5677 5681 5684 5687 5690 5693 5695 5698 5701 5704 5707 5710 5713 5716 5719 5722 5725 5728 5731 5734 5736 5739 5741 5744 5747 5750 5752 5754 5757 5759 5761 5764 5766 5769 5773 5776
5643 5646 5649 5652 5655 5658 5660 5663 5666 5669 5672 5675 5678 5681 5684 5687 5689 5692 5695 5698 5701 5705 5708 5711 5714 5717 5719 5722 5725 5727 5730 5733 5735 5738 5741 5743 5745 5747 5750 5752 5754 5757 5761
5630 5633 5635 5638 5641 5644 5647 5649 5652 5655 5657 5660 5663 5666 5668 5671 5673 5676 5678 5681 5685 5688 5692 5695 5698 5700 5703 5706 5708 5711 5714 5717 5720 5723 5725 5728 5730 5733 5735 5738 5740 5742 5744
5615 5618 5620 5623 5626 5629 5631 5633 5636 5638 5641 5644 5647 5650 5652 5655 5657 5660 5663 5665 5668 5671 5675 5677 5679 5682 5685 5688 5691 5694 5696 5699 5702 5705 5708 5711 5713 5716 5719 5722 5724 5726 5729
5600 5602 5605 5606 5609 5611 5615 5618 5620 5623 5625 5628 5630 5632 5635 5637 5639 5642 5645 5647 5650 5653 5656 5659 5662 5665 5667 5670 5673 5676 5678 5681 5683 5686 5689 5691 5694 5698 5701 5704 5707 5710 5712
5584 5587 5589 5592 5594 5596 5598 5601 5603 5605 5608 5610 5612 5614 5617 5619 5621 5623 5626 5629 5631 5634 5637 5640 5642 5645 5647 5650 5653 5655 5659 5661 5663 5666 5669 5672 5674 5677 5681 5684 5687 5690 5694
5569 5571 5573 5576 5578 5579 5581 5583 5586 5588 5590 5592 5594 5596 5598 5600 5603 5605 5608 5610 5613 5615 5617 5620 5622 5625 5628 5631 5633 5635 5638 5640 5643 5645 5648 5651 5654 5657 5660 5663 5666 5670 5673
5552 5555 5557 5559 5562 5564 5566 5568 5570 5571 5573 5574 5576 5578 5580 5582 5585 5587 5589 5592 5594 5596 5599 5601 5603 5606 5608 5611 5614 5617 5619 5621 5622 5625 5626 5629 5632 5635 5639 5642 5645 5648 5651
5536 5538 5541 5543 5545 5547 5550 5552 5554 5556 5556 5558 5559 5561 5563 5565 5567 5569 5572 5574 5576 5578 5581 5584 5585 5587 5588 5592 5595 5598 5599 5602 5603 5604 5606 5608 5612 5613 5614 5617 5620 5624 5628
5523 5524 5526 5528 5530 5532 5534 5536 5538 5539 5540 5542 5543 5545 5546 5549 5550 5552 5554 5557 5559 5561 5563 5566 5568 5570 5570 5572 5574 5578 5580 5582 5585 5584 5588 5589 5591 5592 5593 5594 5597 5601 5604
5510 5511 5513 5515 5516 5517 5519 5520 5522 5524 5524 5525 5526 5529 5530 5531 5533 5535 5537 5540 5542 5543 5545 5546 5549 5550 5552 5553 5556 5556 5558 5562 5564 5563 5569 5573 5570 5574 5573 5575 5578 5580 5583
5497 5499 5501 5502 5503 5503 5504 5506 5507 5509 5509 5509 5511 5512 5513 5514 5515 5517 5520 5522 5523 5524 5525 5528 5531 5532 5533 5533 5534 5535 5538 5540 5543 5544 5546 5552 5548 5552 5553 5556 5558 5560 5562
5487 5489 5490 5490 5490 5491 5492 5492 5493 5494 5495 5495 5496 5496 5497 5497 5496 5499 5503 5503 5504 5505 5503 5506 5509 5511 5512 5512 5512 5514 5516 5518 5520 5522 5521 5526 5527 5530 5532 5535 5534 5536 5539
5478 5479 5479 5480 5480 5480 5481 5481 5481 5482 5482 5482 5481 5481 5479 5480 5480 5481 5483 5484 5485 5483 5482 5484 5486 5488 5489 5490 5490 5490 5492 5494 5495 5500 5496 5501 5504 5504 5511 5511 5510 5511 5512